This is the latest recevied weather packets stored in our database for station/object YT1XN-8. If no packets are shown the sender has not sent any weather packets the latest 10 day(s).
| Time | Temp. | Humidity | Pressure | Rain* | Wind** | Luminosity | Snow |
|---|---|---|---|---|---|---|---|
| 1777316140 | 15.56° C | 49% | 1019.6 hPa | 0 mm | - | - | - |
| 1777315480 | 16.11° C | 49% | 1019.4 hPa | 0 mm | - | - | - |
| 1777314820 | 16.11° C | 49% | 1019.2 hPa | 0 mm | - | - | - |
| 1777314160 | 16.11° C | 50% | 1019.2 hPa | 0 mm | - | - | - |
| 1777313500 | 16.11° C | 50% | 1019.2 hPa | 0 mm | - | - | - |
| 1777312840 | 16.67° C | 50% | 1019.1 hPa | 0 mm | - | - | - |
| 1777312180 | 16.67° C | 51% | 1019.1 hPa | 0 mm | - | - | - |
| 1777311520 | 17.22° C | 50% | 1019 hPa | 0 mm | - | - | - |
| 1777310860 | 17.22° C | 50% | 1018.8 hPa | 0 mm | - | - | - |
| 1777310200 | 17.78° C | 49% | 1018.9 hPa | 0 mm | - | - | - |
| 1777309540 | 17.78° C | 49% | 1018.9 hPa | 0 mm | - | - | - |
| 1777308880 | 18.33° C | 48% | 1018.9 hPa | 0 mm | - | - | - |
| 1777308644 | 18.33° C | 48% | 1018.9 hPa | 0 mm | - | - | - |
| 1777308220 | 18.89° C | 48% | 1018.9 hPa | 0 mm | - | - | - |
| 1777307560 | 18.89° C | 47% | 1018.9 hPa | 0 mm | - | - | - |
| 1777306900 | 19.44° C | 46% | 1019 hPa | 0 mm | - | - | - |
| 1777306240 | 20° C | 45% | 1019.2 hPa | 0 mm | - | - | - |
| 1777305580 | 20° C | 45% | 1019.2 hPa | 0 mm | - | - | - |
| 1777305045 | 20° C | 43% | 1019.2 hPa | 0 mm | - | - | - |
| 1777304920 | 20° C | 45% | 1019.1 hPa | 0 mm | - | - | - |
| 1777304444 | 20° C | 46% | 1019.2 hPa | 0 mm | - | - | - |
| 1777304261 | 20.56° C | 46% | 1019.2 hPa | 0 mm | - | - | - |
| 1777303601 | 20.56° C | 45% | 1019.3 hPa | 0 mm | - | - | - |
| 1777302941 | 20.56° C | 44% | 1019.5 hPa | 0 mm | - | - | - |
| 1777302644 | 20.56° C | 44% | 1019.5 hPa | 0 mm | - | - | - |
* Rain latest hour (hover to see other rain measurements)
** Current wind speed in m/s (hover to see current wind gust speed)